sat.trackr.live / text

‹ back to catalog

2023-072F

NORAD 56748 · 2023-072F

PAYLOAD ACTIVE UNKNOWN

§ Identity

Operator
Country
SKOR
Launch date
2023-05-25
Launch site
NSC
Launch vehicle
Mass (kg)
RCS (m²)

External: N2YO · Heavens-Above · Gunter

§ Orbital elements

Epoch: 2026-05-25T03:52:10.944192Z

Period
94.06 min
Inclination
97.5130°
Eccentricity
0.0007500
Mean motion
15.30863342 rev/d
Perigee alt
468.1 km
Apogee alt
478.4 km
Semi-major
6,851.4 km
B*
2.6519e-4
RAAN
342.8675°
Arg perigee
97.5448°
Mean anomaly
262.6645°
Rev number
16,625

§ Raw data

2023-072F1 56748U 23072F   26145.16123778  .00007837  00000+0  26519-3 0  99972 56748  97.5130 342.8675 0007500  97.5448 262.6645 15.30863342166257

JSON: /api/v1/satellites/56748 · /tle

For live sub-satellite position, see the globe view (requires WebGL).

§ Visibility from observer

Set your observer location to see the next 7 days of passes ≥ 10°. The values pass through the URL so the page stays shareable.

No JS? Fill the form by hand. The geolocation button needs JavaScript.